Change the Weather History Date:

Tuesday, January 18, 2011

  Actual Average Record
Temperature  
Mean Temperature 15 °F 25 °F  
Max Temperature 18 °F 36 °F 65 °F (1951)
Min Temperature 11 °F 14 °F -22 °F (1943)
Degree Days  
Heating Degree Days 50 40  
Month to date heating degree days 840 720  
Since 1 July heating degree days 3210 3239  
Cooling Degree Days 0 0  
Month to date cooling degree days 0 0  
Year to date cooling degree days 0 0  
Moisture  
Dew Point 9 °F    
Average Humidity 79    
Maximum Humidity 84    
Minimum Humidity 73    
Precipitation  
Precipitation 0.02 in 0.02 in 0.41 in (1931)
Month to date precipitation 1.01 0.29  
Year to date precipitation 1.01 0.29  
Snow  
Snow 0.20 in 0.30 in 4.10 in (1931)
Month to date snowfall 11.8 3.5  
Since 1 July snowfall 14.8 12.8  
Snow Depth 6.00 in    
Sea Level Pressure  
Sea Level Pressure 30.09 in    
Wind  
Wind Speed 9 mph (NNE)    
Max Wind Speed 23 mph    
Max Gust Speed 28 mph    
Visibility 7 miles    
Events Snow    
T = Trace of Precipitation, MM = Missing Value Source: NWS Daily Summary

Daily Weather History Graph

Daily Weather History Graph

Search for Another Location

Airport or City:

Trip Planner

Search our weather history database for the weather conditions in past years. The results will help you decide how hot, cold, wet, or windy it might be!

Date:

Astronomy

Jan. 18, 2011 Rise Set
Actual Time 7:54 AM CST 5:33 PM CST
Civil Twilight 7:24 AM CST 6:03 PM CST
Nautical Twilight 6:50 AM CST 6:36 PM CST
Astronomical Twilight 6:17 AM CST 7:09 PM CST
Moon 4:30 PM CST (1/18) 6:49 AM CST (1/18)
Length of Visible Light 10h 38m
Length of Day
9h 38m
Waxing Gibbous, 98% of the Moon is Illuminated
Jan 18
Waxing Gibbous
Jan 19
Full
Jan 26
Last Quarter
Feb 2
New
Feb 11
First Quarter

Hourly Weather History & Observations

Time (CST) Temp. Windchill Dew Point Humidity Pressure Visibility Wind Dir Wind Speed Gust Speed Precip Events Conditions
12:53 AM 17.1 °F 0.1 °F 10.0 °F 74% 29.99 in 10.0 mi North 20.7 mph - N/A   Overcast
1:53 AM 15.1 °F -1.1 °F 9.0 °F 77% 30.00 in 10.0 mi NNW 17.3 mph - N/A   Overcast
2:53 AM 15.8 °F -1.1 °F 8.6 °F 73% 29.97 in 10.0 mi North 19.6 mph - N/A   Overcast
3:53 AM 14.0 °F -1.4 °F 8.1 °F 77% 30.04 in 10.0 mi North 15.0 mph - N/A   Overcast
4:53 AM 14.0 °F -0.2 °F 8.1 °F 77% 30.06 in 10.0 mi North 12.7 mph - N/A   Overcast
5:53 AM 14.0 °F -0.8 °F 8.6 °F 79% 30.02 in 10.0 mi NNW 13.8 mph - N/A   Overcast
6:53 AM 12.9 °F -3.9 °F 8.1 °F 81% 30.11 in 10.0 mi North 17.3 mph - N/A   Overcast
7:53 AM 12.9 °F -0.9 °F 7.0 °F 77% 30.12 in 10.0 mi North 11.5 mph - N/A   Overcast
8:53 AM 12.9 °F 1.6 °F 7.0 °F 77% 30.14 in 10.0 mi North 8.1 mph - N/A   Overcast
9:53 AM 14.0 °F 2.9 °F 8.1 °F 77% 30.14 in 10.0 mi NNE 8.1 mph - N/A   Overcast
10:53 AM 14.0 °F 6.5 °F 8.1 °F 77% 30.17 in 10.0 mi NNE 4.6 mph - N/A   Overcast
11:53 AM 15.1 °F 5.2 °F 10.0 °F 80% 30.14 in 10.0 mi NNE 6.9 mph - N/A   Overcast
12:53 PM 15.8 °F 10.2 °F 10.4 °F 79% 30.02 in 5.0 mi NE 3.5 mph - N/A Snow Light Snow
1:05 PM 15.8 °F - 10.4 °F 79% 30.02 in 2.5 mi Calm Calm - 0.00 in Snow Light Snow
1:13 PM 15.8 °F 10.2 °F 10.4 °F 79% 30.03 in 1.0 mi NE 3.5 mph - 0.00 in Snow Light Snow
1:22 PM 15.8 °F 10.2 °F 10.4 °F 79% 30.03 in 1.0 mi North 3.5 mph - 0.01 in Snow Light Snow
1:42 PM 15.8 °F - 10.4 °F 79% 30.01 in 1.0 mi Calm Calm - 0.01 in Snow Light Snow
1:53 PM 16.0 °F - 10.9 °F 81% 30.10 in 1.0 mi Calm Calm - 0.01 in Snow Light Snow
2:00 PM 15.8 °F - 10.4 °F 79% 30.01 in 2.5 mi Calm Calm - 0.00 in   Haze
2:30 PM 17.6 °F - 12.2 °F 79% 30.01 in 1.8 mi Calm Calm - 0.00 in Snow Light Snow
2:53 PM 16.0 °F - 10.9 °F 81% 30.11 in 1.8 mi Calm Calm - 0.00 in Snow Light Snow
3:46 PM 15.8 °F 10.2 °F 10.4 °F 79% 30.03 in 2.0 mi NE 3.5 mph - 0.01 in   Haze
3:53 PM 17.1 °F 11.7 °F 10.9 °F 77% 30.13 in 2.0 mi NE 3.5 mph - 0.01 in   Haze
3:56 PM 17.6 °F 12.3 °F 10.4 °F 73% 30.03 in 4.0 mi NE 3.5 mph - N/A   Haze
4:53 PM 17.1 °F 11.7 °F 10.9 °F 77% 30.14 in 4.0 mi East 3.5 mph - N/A   Haze
5:53 PM 16.0 °F 6.3 °F 10.9 °F 81% 30.17 in 5.0 mi NNE 6.9 mph - 0.00 in Snow Light Snow
6:15 PM 15.8 °F 6.1 °F 12.2 °F 86% 30.07 in 2.5 mi NE 6.9 mph - 0.00 in Snow Light Snow
6:53 PM 15.1 °F 6.4 °F 10.9 °F 84% 30.20 in 5.0 mi ENE 5.8 mph - 0.00 in   Overcast
7:53 PM 15.8 °F 5.1 °F 10.4 °F 79% 30.10 in 10.0 mi ENE 8.1 mph - N/A   Overcast
8:43 PM 14.0 °F 1.2 °F 10.4 °F 86% 30.08 in 10.0 mi NE 10.4 mph - N/A   Overcast
8:53 PM 12.9 °F -0.9 °F 9.0 °F 84% 30.19 in 10.0 mi NE 11.5 mph - N/A   Overcast
9:53 PM 12.0 °F -2.0 °F 6.1 °F 77% 30.22 in 10.0 mi NNE 11.5 mph - N/A   Overcast
10:53 PM 10.9 °F -2.6 °F 6.1 °F 81% 30.21 in 10.0 mi NNE 10.4 mph - N/A   Overcast
11:49 PM 10.4 °F 2.2 °F 6.8 °F 85% 30.11 in 10.0 mi NNE 4.6 mph - N/A   Overcast
11:53 PM 10.9 °F 4.7 °F 5.0 °F 77% 30.23 in 10.0 mi NNE 3.5 mph - N/A   Overcast